#timestamp,LO_Frequency,Hit,StdDev 
1526943615.4,286047000.1,N
1526943635.2,286047000.6,N
1526943655.1,286047000.2,N
1526943656.0,286047000.2,N
1526943675.8,286047002.4,N
1526943695.6,286047000.5,N
1526943715.5,286047000.9,N
1526943735.3,286047000.4,N
1526943755.1,286047000.7,N
1526943775.9,286046998.5,N
1526943795.7,286046999.3,N
1526943815.6,286046998.9,N
1526943835.4,286046999.6,N
1526943855.2,286046999.5,N
1526943875.1,286047001.2,N
1526943876.0,286047001.2,N
1526943895.8,286046999.1,N
1526943915.6,286046996.9,N
1526943935.5,286046999.6,N
1526943955.3,286046998.2,N
1526943975.2,286046999.7,N
1526943995.9,286047004.2,Y
1526944015.7,286047003.1,P
1526944035.6,286047004.4,N
1526944055.4,286047005.6,N
1526944075.2,286047003.2,N
1526944095.1,286047005.4,N
1526944096.0,286047005.4,N
1526944115.8,286047007.3,Y
1526944135.7,286047002.1,P
1526944155.5,286047004.0,P
1526944175.3,286047002.2,N
1526944195.2,286046999.7,N
1526944215.0,286047000.3,N
1526944215.9,286047000.3,N
1526944235.8,286047002.7,N
1526944255.6,286047001.9,N
1526944275.4,286047002.5,N
1526944295.3,286047002.4,N
1526944315.1,286047001.4,N
1526944335.9,286047000.8,N
1526944355.7,286047000.4,N
1526944375.5,286047000.8,N
1526944395.4,286046996.5,N
1526944415.2,286046998.5,N
1526944435.0,286047001.2,N
1526944435.9,286047001.2,N
1526944455.8,286046998.3,N
1526944475.6,286046998.4,N
1526944495.5,286046998.8,N
1526944515.3,286047000.8,N
1526944535.1,286046998.1,N
1526944555.9,286046998.5,N
1526944575.7,286047000.7,N
1526944595.5,286047002.7,N
1526944615.4,286047000.3,N
1526944635.2,286046998.8,N
1526944655.1,286047000.7,N
1526944656.0,286047000.7,N
1526944675.8,286047000.8,N
1526944695.6,286046999.0,N
1526944715.5,286046998.5,N
1526944735.3,286046999.0,N
1526944755.1,286047000.6,N
1526944775.9,286046998.1,N
1526944795.7,286046996.6,N
1526944815.6,286046997.1,N
1526944835.4,286046995.0,Y
1526944855.2,286046998.0,P
1526944875.1,286046996.7,P
1526944876.0,286046996.7,N
1526944895.8,286046997.4,N
1526944915.7,286046996.2,Y
1526944935.5,286046996.5,P
1526944955.4,286046996.9,P
1526944975.2,286047001.0,N
1526944995.0,286047000.8,N
1526944995.9,286047000.8,N
1526945015.4,286047001.2,N
1526945035.3,286047001.1,N
1526945055.1,286047000.1,N
1526945075.8,286047002.4,N
1526945095.7,286047001.2,N
1526945115.5,286046998.4,N
1526945135.4,286046998.1,N
1526945155.2,286046999.6,N
1526945175.0,286046997.6,N
1526945175.9,286046997.6,N
1526945195.8,286046995.3,N
1526945215.6,286046995.4,N
1526945235.5,286046995.1,N
1526945255.3,286046997.4,N
1526945275.1,286046995.3,N
1526945295.9,286046995.0,N
1526945315.7,286046997.2,N
1526945335.5,286046998.8,N
1526945355.4,286046996.7,N
1526945375.2,286046997.3,N
1526945395.1,286046997.2,N
1526945396.0,286046997.2,N
1526945415.8,286046997.5,N
1526945435.6,286046997.1,N
1526945455.5,286046997.7,N
1526945475.3,286046998.0,N
1526945495.1,286046999.2,N
1526945515.9,286046996.7,N
1526945535.7,286046998.6,N
1526945555.6,286046998.5,N
1526945575.4,286046998.4,N
1526945595.2,286046998.2,N
1526945615.1,286047002.3,N
1526945616.0,286047002.3,N
1526945635.8,286047002.6,N
1526945655.6,286047002.6,N
1526945675.5,286047000.1,N
1526945695.3,286047001.1,N
1526945715.2,286047002.4,N
1526945735.9,286047000.3,N
1526945755.7,286047001.2,N
1526945775.6,286047000.2,N
1526945795.4,286046999.7,N
1526945815.2,286047000.6,N
1526945835.1,286046999.2,N
1526945836.0,286046999.2,N
1526945855.8,286046999.4,N
1526945875.7,286046998.6,N
1526945895.5,286047000.5,N
1526945915.3,286047000.1,N
1526945935.2,286047001.0,N
1526945955.0,286046998.6,N
1526945955.9,286046998.6,N
1526945975.8,286047001.1,N
1526945995.6,286047000.0,N
1526946015.4,286046999.0,N
1526946035.3,286046999.1,N
1526946055.1,286046997.2,N
1526946075.8,286046997.3,N
1526946095.7,286046999.4,N
1526946115.5,286046999.5,N
1526946135.4,286047000.3,N
1526946155.2,286046999.0,N
1526946205.1,286046997.8,E
1526946215.9,286046999.1,N
1526946235.7,286046998.3,P
1526946255.6,286046999.3,N
1526946275.4,286046998.8,N
1526946295.2,286046997.8,Y
1526946315.1,286046999.2,P
1526946316.0,286046999.2,P
1526946335.8,286046996.6,P
1526946355.6,286046999.1,N
1526946375.5,286046999.1,N
1526946395.3,286046997.2,Y
1526946415.2,286046998.3,P
1526946435.9,286046998.4,P
1526946455.7,286046999.9,N
1526946475.6,286046998.4,N
1526946495.4,286046999.0,N
1526946515.3,286046998.8,N
1526946535.1,286046998.9,N
1526946536.0,286046998.9,N
1526946555.8,286046998.6,Y
1526946575.7,286046998.5,P
1526946595.5,286047000.2,N
1526946615.3,286047002.7,P
1526946635.2,286047002.2,N
1526946655.0,286046999.7,N
1526946655.9,286046999.7,N
1526946675.8,286047002.7,N
1526946695.6,286047004.2,N
1526946715.4,286047004.2,N
1526946735.3,286047000.4,N
1526946755.1,286047000.6,N
1526946775.9,286046999.8,N
1526946795.7,286047000.5,N
1526946815.5,286047000.0,N
1526946835.4,286047002.7,N
1526946855.2,286047002.3,N
1526946875.0,286047001.9,N
1526946875.9,286047001.9,N
1526946895.8,286046999.8,N
1526946915.6,286047000.2,N
1526946935.5,286047002.3,N
1526946955.3,286046999.8,N
1526946975.1,286047000.7,N
1526946995.9,286047001.0,N
1526947015.7,286047000.3,N
1526947035.6,286047001.9,N
1526947055.4,286047003.7,N
1526947075.2,286047003.8,N
1526947095.1,286047004.1,N
1526947096.0,286047004.1,N
1526947115.8,286047003.1,N
1526947135.6,286047002.3,N
1526947155.5,286047000.2,N
1526947175.3,286047002.5,N
1526947195.2,286047000.2,N
